Погода Ерментау

Хотите узнать прогноз погоды Ерментау? Тогда Вам сюда: Погода Ерментау

Поиск расширенной информации на нашем сайте:

Полезная информация:

Новости сайта



02.01.2020
Опубликован Долгосрочный прогноз погоды по городам России и ближнего зарубежья на январь 2020 года.
Карты: Прогноз на январь и февраль 2020 года, Сравнение прогнозируемой аномалии приземной температуры воздуха на январь 2020 года по разным моделям.




Погода Ерментау - сегодня

Время (UTC), дата Ветер
(°,м/с) 
Видим.   Явления Облачность Т
(°С)
Тd
(°С)
f(%) Тe
(°С)
Pmin
(гПа)
dP
(гПа)
Po
(мм)
O2
(г/м3)
Тmin Tmax R s Состояние
почвы
12 22.10.21 220 (ЮЗ) 13-19{21}  20000 м    10/10 600 м 
[Sc]
+3.2 -4.2 58 -2  1020.1  0.5  728  291           
15 22.10.21 230 (ЮЗ) 13-19{22}  н/о  слаб. ливневой снег  10/10 300 м кучево-дожд. 
[Cb cap]
+0.4 -0.2 96 -5  1021.2  0.5  729  293    +4.7  0.0     
18 22.10.21 240 (ЮЗ) 13-19{21}  н/о  в посл. час ливневой дождь  10/10 600 м кучево-дожд. 
[Cb cap]
+1.3 +0.5 94 -4  1021.1  0.1  729  292    +4.7  0.0     
21 22.10.21 230 (ЮЗ) 12-18{21}  н/о  в посл. час ливневой дождь  10/10 600 м кучево-дожд. 
[Cb cap]
+1.6 +0.8 94 -3  1021.3  0.3  729  292           
00 23.10.21 220 (ЮЗ) 12-18{20}  н/о  в посл. час ливневой дождь  10/10 600 м кучево-дожд. 
[Cb cap]
+2.4 +1.6 94 -2  1020  -1.1  728  291           
03 23.10.21 230 (ЮЗ) 14-21{21}  10 км  {ливн. осадки}  10/10 600 м кучево-дожд. 
[Cb cap]
+3.4 +1.9 90 -2  1019.7  -0.1  728  289      0.8     
06 23.10.21 230 (ЮЗ) 14-20{22}  20000 м  {ливн. осадки}  8/8 600 м кучево-дожд. 
[Cb cap]
+5.4 +1.2 74 +1  1019.7  0.3  728  288  -0.3    0.8     
09 23.10.21 250 (З) 16-24{24}  20000 м    10/0 средняя, верхняя 
[As trans|Cs]
+9.4 +1.7 59 +6  1019.4  0.3  729  283           
12 23.10.21 230 (ЮЗ) 12-17{24}  20000 м    10/0 средняя, верхняя 
[As trans|Cs]
+9.8 +1.5 56 +7  1018.8  -0.4  728  283           
15 23.10.21 240 (ЮЗ) 12-17{18}  н/о    10/0 средняя, верхняя 
[As trans|Cs]
+9.8 +3.2 63 +7  1020.5  1.6  730  283    +10.7       
18 23.10.21 240 (ЮЗ) 10-15{19}  н/о    10/0 средняя 
[As trans]
+8.3 +5.7 84 +5  1021.8  730  285    +10.7       
21 23.10.21 230 (ЮЗ) 12-16{17}  н/о    10/10 1000 м 
[Sc]
+9.2 +6 80 +6  1022.2  0.6  731  284           
00 24.10.21 240 (ЮЗ) 9{16}  н/о    10/10 600 м 
[Sc]
+8.4 +5.6 83 +6  1023.2  0.8  731  285           
03 24.10.21 220 (ЮЗ) 10-15{16}  20000 м    10/10 1000 м 
[Sc]
+6.8 +3.8 81 +4  1024.7  1.1  732  287           
06 24.10.21 230 (ЮЗ) 10{16}  20000 м    9/9 600 м кучево-дожд. 
[Cb cap]
+9.8 +2.9 62 +7  1024.1  -0.1  732  284  +6.6         
09 24.10.21 240 (ЮЗ) 10{16}  20000 м    8/8 600 м кучево-дожд. 
[Cb cap]
+12.6 +3.3 53 +11  1023.2  -0.4  732  281           
12 24.10.21 240 (ЮЗ) 7{15}  20000 м    6/6 600 м 
[Sc]
+10.8 +1.1 51 +9  1023.4  -0.1  732  283           
15 24.10.21 210 (ЮЗ) н/о    3/0 верхняя 
[Ci fib]
+6.9 -0.2 61 +5  1024.2  0.1  732  288    +13.6       
18 24.10.21 210 (ЮЗ) н/о    ясно 
+4.8 -0.4 69 +2  1023.5  -1  731  289    +13.6       
21 24.10.21 210 (ЮЗ) н/о    ясно 
+4.1 -2.3 63 +1  1022.1  -1.5  730  290           
00 25.10.21 210 (ЮЗ) н/о    4/0 верхняя 
[Ci fib]
+3.8 -2 66 1020.7  -1.4  729  290           
03 25.10.21 220 (ЮЗ) 20000 м    8/8 600 м 
[Sc]
+4.6 -0.1 72 +1  1020.6  0.1  729  289           
06 25.10.21 220 (ЮЗ) 20000 м    4/3 600 м верхняя 
[Sc|Ci fib]
+9.6 -0.3 50 +8  1019.5  -0.2  729  284  +3         
09 25.10.21 230 (ЮЗ) 20000 м    8/0 верхняя 
[Cs]
+12.8 -2.5 34 +12  1017.6  -1.3  728  280           
12 25.10.21 220 (ЮЗ) 20000 м    9/0 верхняя 
[Cs]
+8.7 +0 54 +7  1017.7  -0.6  727  284           
Время (UTC), дата Ветер
(°,м/с) 
Видим.   Явления Облачность Т
(°С)
Тd
(°С)
f(%) Тe
(°С)
Pmin
(гПа)
dP
(гПа)
Po
(мм)
O2
(г/м3)
Тmin Tmax R s Состояние
почвы

Для получения пояснительной информации подведите курсор к названию столбца.

ПОГОДА Ерментау - архив

Всё, что Вы хотите узнать о погоде Ерментау - удобно и подробно!

Выберите нужную дату (начиная с 1 января 2019* года) и нажмите кнопку "Найти".
Будут отображены архивные сводки погоды по пункту Ерментау, начиная с указанной даты.


Отображать данные в формате CSV (для использования в таблицах Excel)


Внимание! Наш архив погоды предназначен исключительно для личного некоммерческого использования в познавательных целях. Если Вам необходимы официальные справки о состоянии погоды (для производственных, юридических, коммерческих и т.п. целей), обращайтесь в органы Росгидромета.

*Примечание: данная дата относится к архиву по метеостанциям СССР (Россия, СНГ, Балтия).
Архив по метеостанциям Зарубежной Европы и Азии (кроме Китая) хранится 10 дней, по другим регионам земного шара (Китай, Африка, Америка, Австралия, Океания) - 1 день.

Ерментау - район местоположения метеостанции


Название, широта, долгота, высота метеостанции:
Ерментау 51.6°ш. 73.2°д. 397 м над ур. моря [Казахстан]

Дополнительная информация

В oтличие oт бoльшинства пoгoдных сайтoв мы публикуем пoдрoбную метеoинфoрмацию в детальнoм прoфессиoнальнoм фoрмате.

Характеристики температуры и влажнoсти вoздуха измеряются на высoте 2 м в тени вдали oт зданий и деревьев.
Скoрoсть ветра измеряется на высoте 10 м (на урoвне рoста челoвека скoрoсть ветра ниже в 1.5-2 раза). Если метеoстанция нахoдится в гoрoде или в лесу, тo скoрoсть ветра занижена на 2-4 м/с пo сравнению с oткрытым местoм. Скoрoсть ветра над акватoриями крупных рек и oзёр, а также на вершинах хoлмoв на 2-5 м/с выше, чем в oбычных услoвиях.
Атмoсфернoе давление в разных тoчках местнoсти мoжет значительнo oтличаться oт давления на метеoстанции, в зависимoсти oт услoвий рельефа (при пoдъёме на 10 м давление пoнижается примернo на 1 мм рт.ст.).